| time (UTC) | temp F | wind direction | speed knots | gust knots | rain 1hr in | rain 24hr in | rain mn in | humidity % | barometer mb |
| 20260905124109 | 59 | 243 | 0.0 | 2.6 | 0.00 | 0.27 | 0.00 | 97 | 1009.9 |
| 20260905122609 | 59 | 243 | 0.0 | 2.6 | 0.00 | 0.27 | 0.00 | 97 | 1009.9 |
| 20260905121109 | 59 | 243 | 0.0 | 2.6 | 0.00 | 0.27 | 0.00 | 97 | 1009.9 |
| 20260905115611 | 59 | 243 | 0.0 | 2.6 | 0.00 | 0.27 | 0.00 | 97 | 1009.9 |
| 20260905114110 | 59 | 233 | 0.0 | 2.6 | 0.00 | 0.27 | 0.00 | 98 | 1009.9 |
| 20260905112610 | 58 | 245 | 0.0 | 2.6 | 0.00 | 0.27 | 0.00 | 99 | 1009.3 |
| 20260905111108 | 59 | 245 | 0.0 | 2.6 | 0.00 | 0.27 | 0.00 | 99 | 1009.3 |
| 20260905105608 | 59 | 261 | 0.9 | 2.6 | 0.00 | 0.27 | 0.00 | 99 | 1009.6 |
| 20260905104110 | 59 | 243 | 0.0 | 0.0 | 0.00 | 0.27 | 0.00 | 99 | 1008.9 |
| 20260905102610 | 63 | 247 | 0.0 | 0.0 | 0.28 | 0.18 | 0.00 | 96 | 1008.6 |
| 20260905101110 | 63 | 247 | 0.0 | 0.0 | 0.28 | 0.18 | 0.00 | 96 | 1008.6 |
| 20260905095610 | 63 | 247 | 0.0 | 0.0 | 0.28 | 0.18 | 0.00 | 96 | 1008.6 |
| 20260905094110 | 63 | 247 | 0.0 | 0.0 | 0.28 | 0.18 | 0.00 | 96 | 1008.6 |
| 20260905092610 | 64 | 250 | 0.0 | 0.0 | 0.07 | 0.14 | 0.00 | 94 | 1008.9 |
| 20260905091110 | 65 | 238 | 0.0 | 2.6 | 0.00 | 0.12 | 0.00 | 88 | 1008.6 |
| 20260905085610 | 66 | 241 | 0.0 | 0.0 | 0.00 | 0.12 | 0.00 | 86 | 1007.9 |
| 20260905084110 | 66 | 247 | 0.0 | 0.0 | 0.00 | 0.12 | 0.00 | 83 | 1008.2 |
| 20260905082610 | 65 | 243 | 0.0 | 0.0 | 0.00 | 0.12 | 0.00 | 86 | 1007.6 |
| 20260905081110 | 64 | 234 | 0.0 | 0.0 | 0.00 | 0.12 | 0.00 | 91 | 1007.2 |
| 20260905075610 | 57 | 247 | 0.9 | 2.6 | 0.07 | 0.11 | 0.00 | 99 | 1005.9 |
| 20260905074110 | 57 | 247 | 0.9 | 2.6 | 0.07 | 0.11 | 0.00 | 99 | 1005.9 |
| 20260905072610 | 57 | 247 | 0.9 | 2.6 | 0.07 | 0.11 | 0.00 | 99 | 1005.9 |
| 20260905071110 | 57 | 247 | 0.9 | 2.6 | 0.07 | 0.11 | 0.00 | 99 | 1005.9 |
| 20260905065610 | 57 | 260 | 0.0 | 2.6 | 0.00 | 0.09 | 0.00 | 99 | 1005.5 |
| 20260905064110 | 57 | 241 | 0.0 | 0.0 | 0.21 | 0.09 | 0.00 | 99 | 1005.2 |
| 20260905062610 | 57 | 248 | 1.7 | 4.3 | 0.00 | 0.06 | 0.00 | 99 | 1005.2 |
| 20260905061109 | 58 | 199 | 3.5 | 4.3 | 0.00 | 0.06 | 0.00 | 99 | 1004.5 |
| 20260905055609 | 58 | 243 | 0.0 | 0.0 | 0.07 | 0.05 | 0.00 | 99 | 1004.9 |
| 20260905054110 | 58 | 244 | 0.0 | 0.0 | 0.00 | 0.04 | 0.00 | 96 | 1004.5 |
| 20260905052609 | 57 | 247 | 0.0 | 0.0 | 0.00 | 0.04 | 0.00 | 97 | 1003.8 |
| 20260905051110 | 57 | 244 | 0.0 | 0.0 | 0.00 | 0.04 | 0.00 | 99 | 1003.8 |
| 20260905045610 | 57 | 244 | 0.0 | 0.0 | 0.00 | 0.04 | 0.00 | 99 | 1003.8 |
| 20260905044109 | 56 | 243 | 0.0 | 0.0 | 0.00 | 0.04 | 0.00 | 99 | 1003.8 |
| 20260905042609 | 56 | 245 | 0.0 | 0.0 | 0.00 | 0.04 | 0.00 | 99 | 1003.8 |
| 20260905041109 | 56 | 241 | 0.0 | 2.6 | 0.00 | 0.04 | 0.00 | 99 | 1003.5 |
| 20260905035609 | 56 | 243 | 0.0 | 0.0 | 0.00 | 0.04 | 0.00 | 99 | 1003.5 |
| 20260905034109 | 56 | 245 | 0.0 | 0.0 | 0.00 | 0.04 | 0.00 | 99 | 1003.5 |
| 20260905032610 | 56 | 247 | 0.0 | 0.0 | 0.00 | 0.04 | 0.00 | 99 | 1003.2 |
| 20260905025609 | 56 | 244 | 0.0 | 0.0 | 0.00 | 0.02 | 0.00 | 99 | 1002.8 |
| 20260905024109 | 56 | 244 | 0.0 | 0.0 | 0.00 | 0.02 | 0.00 | 99 | 1002.8 |
| 20260905022610 | 56 | 244 | 0.0 | 0.0 | 0.00 | 0.02 | 0.00 | 99 | 1002.8 |
| 20260905021109 | 56 | 244 | 0.0 | 0.0 | 0.00 | 0.02 | 0.00 | 99 | 1002.8 |
| 20260905015609 | 56 | 15 | 0.0 | 0.0 | 0.00 | 0.02 | 0.00 | 99 | 1002.5 |
| 20260905014109 | 57 | 251 | 0.0 | 0.0 | 0.00 | 0.02 | 0.00 | 99 | 1002.5 |